| time (UTC) | temp C | wind direction | speed KPH | gust KPH | rain 1hr cm | rain 24hr cm | rain mn cm | humidity % | barometer mb |
| 20260906131225 | 19 | 330 | 0.0 | 0.0 | 0.00 | 0.00 | 0.00 | 84 | 1021.7 |
| 20260906130721 | 19 | 85 | 0.0 | 0.0 | 0.00 | 0.00 | 0.00 | 84 | 1021.7 |
| 20260906130215 | 19 | 17 | 0.0 | 0.0 | 0.00 | 0.00 | 0.00 | 85 | 1021.8 |
| 20260906125714 | 18 | 1 | 0.0 | 0.0 | 0.00 | 0.00 | 0.00 | 88 | 1021.5 |
| 20260906125212 | 17 | 353 | 0.0 | 0.0 | 0.00 | 0.00 | 0.00 | 89 | 1021.5 |
| 20260906124707 | 17 | 329 | 0.0 | 0.0 | 0.00 | 0.00 | 0.00 | 89 | 1021.5 |
| 20260906124203 | 18 | 294 | 0.0 | 1.6 | 0.00 | 0.00 | 0.00 | 89 | 1021.5 |
| 20260906123701 | 18 | 359 | 0.0 | 0.0 | 0.00 | 0.00 | 0.00 | 92 | 1021.6 |
| 20260906123157 | 17 | 328 | 0.0 | 0.0 | 0.00 | 0.00 | 0.00 | 96 | 1021.5 |
| 20260906122656 | 16 | 308 | 0.0 | 0.0 | 0.00 | 0.00 | 0.00 | 98 | 1021.4 |
| 20260906122152 | 15 | 306 | 0.0 | 0.0 | 0.00 | 0.00 | 0.00 | 98 | 1021.3 |
| 20260906121648 | 15 | 330 | 0.0 | 0.0 | 0.00 | 0.00 | 0.00 | 99 | 1021.2 |
| 20260906121144 | 14 | 318 | 0.0 | 0.0 | 0.00 | 0.00 | 0.00 | 99 | 1021.3 |
| 20260906120640 | 14 | 324 | 0.0 | 0.0 | 0.00 | 0.00 | 0.00 | 99 | 1021.2 |
| 20260906120137 | 13 | 324 | 0.0 | 0.0 | 0.00 | 0.00 | 0.00 | 99 | 1021.3 |
| 20260906115637 | 13 | 323 | 0.0 | 0.0 | 0.00 | 0.00 | 0.00 | 99 | 1021.3 |
| 20260906115132 | 13 | 329 | 0.0 | 0.0 | 0.00 | 0.00 | 0.00 | 99 | 1021.1 |
| 20260906114631 | 13 | 329 | 0.0 | 0.0 | 0.00 | 0.00 | 0.00 | 99 | 1021.0 |
| 20260906114126 | 13 | 328 | 0.0 | 0.0 | 0.00 | 0.00 | 0.00 | 99 | 1020.9 |
| 20260906113626 | 13 | 328 | 0.0 | 0.0 | 0.00 | 0.00 | 0.00 | 98 | 1021.0 |
| 20260906113121 | 13 | 328 | 0.0 | 0.0 | 0.00 | 0.00 | 0.00 | 98 | 1020.8 |
| 20260906112620 | 13 | 328 | 0.0 | 0.0 | 0.00 | 0.00 | 0.00 | 98 | 1020.7 |
| 20260906112118 | 13 | 328 | 0.0 | 0.0 | 0.00 | 0.00 | 0.00 | 98 | 1020.7 |
| 20260906111616 | 13 | 328 | 0.0 | 0.0 | 0.00 | 0.00 | 0.00 | 98 | 1020.8 |
| 20260906111112 | 13 | 328 | 0.0 | 0.0 | 0.00 | 0.00 | 0.00 | 98 | 1020.5 |
| 20260906110612 | 13 | 328 | 0.0 | 0.0 | 0.00 | 0.00 | 0.00 | 98 | 1020.8 |
| 20260906110106 | 13 | 329 | 0.0 | 0.0 | 0.00 | 0.00 | 0.00 | 98 | 1020.8 |
| 20260906105601 | 13 | 332 | 0.0 | 0.0 | 0.00 | 0.00 | 0.00 | 98 | 1020.7 |
| 20260906105057 | 13 | 332 | 0.0 | 0.0 | 0.00 | 0.00 | 0.00 | 98 | 1020.6 |
| 20260906104556 | 13 | 332 | 0.0 | 0.0 | 0.00 | 0.00 | 0.00 | 98 | 1020.6 |
| 20260906104050 | 13 | 332 | 0.0 | 0.0 | 0.00 | 0.00 | 0.00 | 98 | 1020.6 |
| 20260906103548 | 13 | 332 | 0.0 | 0.0 | 0.00 | 0.00 | 0.00 | 98 | 1020.8 |
| 20260906103044 | 13 | 321 | 0.0 | 0.0 | 0.00 | 0.00 | 0.00 | 97 | 1020.8 |
| 20260906102543 | 13 | 322 | 0.0 | 0.0 | 0.00 | 0.00 | 0.00 | 97 | 1020.7 |
| 20260906102039 | 13 | 322 | 0.0 | 0.0 | 0.00 | 0.00 | 0.00 | 97 | 1020.5 |
| 20260906101533 | 13 | 322 | 0.0 | 0.0 | 0.00 | 0.00 | 0.00 | 97 | 1020.7 |
| 20260906101028 | 13 | 322 | 0.0 | 0.0 | 0.00 | 0.00 | 0.00 | 97 | 1020.6 |
| 20260906100524 | 13 | 321 | 0.0 | 0.0 | 0.00 | 0.00 | 0.00 | 97 | 1020.7 |
| 20260906100024 | 14 | 326 | 0.0 | 0.0 | 0.00 | 0.00 | 0.00 | 97 | 1020.7 |
| 20260906095519 | 14 | 325 | 0.0 | 0.0 | 0.00 | 0.00 | 0.00 | 97 | 1020.4 |
| 20260906095014 | 13 | 326 | 0.0 | 0.0 | 0.00 | 0.00 | 0.00 | 96 | 1020.4 |
| 20260906094513 | 14 | 326 | 0.0 | 0.0 | 0.00 | 0.00 | 0.00 | 96 | 1020.4 |
| 20260906094009 | 14 | 326 | 0.0 | 0.0 | 0.00 | 0.00 | 0.00 | 96 | 1020.7 |
| 20260906093505 | 14 | 326 | 0.0 | 0.0 | 0.00 | 0.00 | 0.00 | 96 | 1020.3 |
| 20260906093000 | 14 | 328 | 0.0 | 0.0 | 0.00 | 0.00 | 0.00 | 96 | 1020.5 |
| 20260906092500 | 14 | 326 | 0.0 | 0.0 | 0.00 | 0.00 | 0.00 | 96 | 1020.4 |
| 20260906091954 | 14 | 326 | 0.0 | 0.0 | 0.00 | 0.00 | 0.00 | 95 | 1020.4 |
| 20260906091450 | 14 | 326 | 0.0 | 0.0 | 0.00 | 0.00 | 0.00 | 95 | 1020.5 |
| 20260906090947 | 14 | 326 | 0.0 | 0.0 | 0.00 | 0.00 | 0.00 | 95 | 1020.4 |
| 20260906090442 | 14 | 326 | 0.0 | 0.0 | 0.00 | 0.00 | 0.00 | 94 | 1020.4 |
| 20260906085942 | 15 | 326 | 0.0 | 0.0 | 0.00 | 0.00 | 0.00 | 94 | 1020.5 |
| 20260906085441 | 15 | 326 | 0.0 | 0.0 | 0.00 | 0.00 | 0.00 | 94 | 1020.3 |
| 20260906084940 | 15 | 326 | 0.0 | 0.0 | 0.00 | 0.00 | 0.00 | 94 | 1020.2 |
| 20260906084435 | 15 | 326 | 0.0 | 0.0 | 0.00 | 0.00 | 0.00 | 93 | 1020.1 |
| 20260906083934 | 15 | 326 | 0.0 | 0.0 | 0.00 | 0.00 | 0.00 | 93 | 1019.9 |
| 20260906083430 | 15 | 326 | 0.0 | 0.0 | 0.00 | 0.00 | 0.00 | 93 | 1019.7 |
| 20260906082929 | 15 | 329 | 0.0 | 0.0 | 0.00 | 0.00 | 0.00 | 93 | 1019.7 |
| 20260906082425 | 15 | 346 | 0.0 | 0.0 | 0.00 | 0.00 | 0.00 | 93 | 1019.6 |
| 20260906081920 | 15 | 330 | 0.0 | 0.0 | 0.00 | 0.00 | 0.00 | 92 | 1019.6 |
| 20260906081415 | 15 | 338 | 0.0 | 0.0 | 0.00 | 0.00 | 0.00 | 92 | 1019.6 |
| 20260906080912 | 16 | 331 | 0.0 | 0.0 | 0.00 | 0.00 | 0.00 | 92 | 1019.9 |
| 20260906080408 | 16 | 27 | 0.0 | 1.6 | 0.00 | 0.00 | 0.00 | 92 | 1019.9 |
| 20260906075907 | 16 | 293 | 0.0 | 0.0 | 0.00 | 0.00 | 0.00 | 92 | 1019.5 |
| 20260906075402 | 16 | 319 | 0.0 | 0.0 | 0.00 | 0.00 | 0.00 | 92 | 1019.6 |
| 20260906074858 | 16 | 332 | 0.0 | 0.0 | 0.00 | 0.00 | 0.00 | 92 | 1019.5 |
| 20260906074357 | 16 | 318 | 0.0 | 0.0 | 0.00 | 0.00 | 0.00 | 92 | 1019.6 |
| 20260906073856 | 16 | 318 | 0.0 | 1.6 | 0.00 | 0.00 | 0.00 | 92 | 1019.6 |
| 20260906073351 | 16 | 324 | 0.0 | 0.0 | 0.00 | 0.00 | 0.00 | 92 | 1019.6 |
| 20260906072848 | 16 | 310 | 0.0 | 0.0 | 0.00 | 0.00 | 0.00 | 92 | 1019.4 |
| 20260906072343 | 16 | 338 | 0.0 | 0.0 | 0.00 | 0.00 | 0.00 | 92 | 1019.4 |
| 20260906071839 | 16 | 319 | 0.0 | 0.0 | 0.00 | 0.00 | 0.00 | 92 | 1019.4 |
| 20260906071334 | 16 | 339 | 0.0 | 0.0 | 0.00 | 0.00 | 0.00 | 92 | 1019.7 |
| 20260906070830 | 16 | 339 | 0.0 | 0.0 | 0.00 | 0.00 | 0.00 | 91 | 1019.4 |
| 20260906070325 | 16 | 324 | 0.0 | 0.0 | 0.00 | 0.00 | 0.00 | 91 | 1019.6 |
| 20260906065820 | 16 | 323 | 0.0 | 0.0 | 0.00 | 0.00 | 0.00 | 91 | 1019.7 |
| 20260906065315 | 16 | 303 | 0.0 | 0.0 | 0.00 | 0.00 | 0.00 | 91 | 1019.4 |
| 20260906064811 | 16 | 324 | 0.0 | 0.0 | 0.00 | 0.00 | 0.00 | 90 | 1019.4 |
| 20260906064307 | 16 | 334 | 0.0 | 0.0 | 0.00 | 0.00 | 0.00 | 90 | 1019.7 |
| 20260906063801 | 16 | 321 | 0.0 | 0.0 | 0.00 | 0.00 | 0.00 | 89 | 1019.7 |
| 20260906063257 | 16 | 309 | 0.0 | 1.6 | 0.00 | 0.00 | 0.00 | 89 | 1019.5 |
| 20260906062752 | 16 | 339 | 1.6 | 1.6 | 0.00 | 0.00 | 0.00 | 89 | 1019.6 |
| 20260906062251 | 16 | 319 | 0.0 | 1.6 | 0.00 | 0.00 | 0.00 | 89 | 1019.6 |
| 20260906061747 | 17 | 321 | 0.0 | 0.0 | 0.00 | 0.00 | 0.00 | 88 | 1019.6 |
| 20260906061243 | 17 | 350 | 0.0 | 0.0 | 0.00 | 0.00 | 0.00 | 87 | 1019.7 |
| 20260906060738 | 17 | 318 | 0.0 | 0.0 | 0.00 | 0.00 | 0.00 | 87 | 1019.6 |
| 20260906060236 | 17 | 334 | 0.0 | 0.0 | 0.00 | 0.00 | 0.00 | 86 | 1019.4 |
| 20260906055731 | 17 | 331 | 0.0 | 0.0 | 0.00 | 0.00 | 0.00 | 86 | 1019.4 |
| 20260906055226 | 17 | 330 | 0.0 | 0.0 | 0.00 | 0.00 | 0.00 | 85 | 1019.2 |
| 20260906054721 | 17 | 346 | 0.0 | 0.0 | 0.00 | 0.00 | 0.00 | 85 | 1019.4 |
| 20260906054216 | 17 | 339 | 0.0 | 0.0 | 0.00 | 0.00 | 0.00 | 85 | 1019.5 |
| 20260906053713 | 17 | 341 | 0.0 | 0.0 | 0.00 | 0.00 | 0.00 | 84 | 1019.4 |
| 20260906053208 | 17 | 309 | 0.0 | 0.0 | 0.00 | 0.00 | 0.00 | 84 | 1019.5 |
| 20260906052703 | 17 | 339 | 0.0 | 0.0 | 0.00 | 0.00 | 0.00 | 84 | 1019.3 |
| 20260906052159 | 18 | 340 | 0.0 | 0.0 | 0.00 | 0.00 | 0.00 | 83 | 1019.1 |
| 20260906051656 | 18 | 321 | 0.0 | 0.0 | 0.00 | 0.00 | 0.00 | 83 | 1019.1 |
| 20260906051155 | 18 | 322 | 0.0 | 0.0 | 0.00 | 0.00 | 0.00 | 82 | 1019.2 |
| 20260906050651 | 18 | 304 | 0.0 | 0.0 | 0.00 | 0.00 | 0.00 | 81 | 1019.1 |
| 20260906050146 | 18 | 315 | 0.0 | 0.0 | 0.00 | 0.00 | 0.00 | 81 | 1019.2 |
| 20260906045644 | 18 | 311 | 0.0 | 0.0 | 0.00 | 0.00 | 0.00 | 80 | 1019.2 |
| 20260906045140 | 18 | 17 | 0.0 | 0.0 | 0.00 | 0.00 | 0.00 | 80 | 1019.3 |
| 20260906044636 | 19 | 67 | 0.0 | 0.0 | 0.00 | 0.00 | 0.00 | 79 | 1018.8 |
| 20260906044131 | 19 | 320 | 0.0 | 0.0 | 0.00 | 0.00 | 0.00 | 79 | 1018.8 |
| 20260906043627 | 19 | 107 | 3.2 | 3.2 | 0.00 | 0.00 | 0.00 | 79 | 1019.1 |
| 20260906043122 | 19 | 236 | 1.6 | 1.6 | 0.00 | 0.00 | 0.00 | 79 | 1019.2 |
| 20260906042621 | 20 | 287 | 0.0 | 1.6 | 0.00 | 0.00 | 0.00 | 79 | 1019.1 |
| 20260906042116 | 20 | 133 | 1.6 | 4.8 | 0.00 | 0.00 | 0.00 | 79 | 1018.7 |
| 20260906041612 | 20 | 110 | 3.2 | 4.8 | 0.00 | 0.00 | 0.00 | 79 | 1018.6 |
| 20260906041111 | 20 | 316 | 0.0 | 1.6 | 0.00 | 0.00 | 0.00 | 80 | 1018.8 |
| 20260906040607 | 20 | 205 | 3.2 | 3.2 | 0.00 | 0.00 | 0.00 | 81 | 1018.5 |
| 20260906035557 | 20 | 307 | 3.2 | 4.8 | 0.00 | 0.00 | 0.00 | 82 | 1018.7 |
| 20260906035053 | 20 | 313 | 0.0 | 0.0 | 0.00 | 0.00 | 0.00 | 83 | 1018.6 |
| 20260906034548 | 20 | 83 | 3.2 | 4.8 | 0.00 | 0.00 | 0.00 | 84 | 1018.4 |
| 20260906034043 | 20 | 300 | 0.0 | 0.0 | 0.00 | 0.00 | 0.00 | 84 | 1018.5 |
| 20260906033538 | 20 | 286 | 1.6 | 3.2 | 0.00 | 0.00 | 0.00 | 83 | 1018.4 |
| 20260906033033 | 20 | 335 | 0.0 | 0.0 | 0.00 | 0.00 | 0.00 | 83 | 1018.2 |
| 20260906032530 | 20 | 14 | 0.0 | 0.0 | 0.00 | 0.00 | 0.00 | 83 | 1018.4 |
| 20260906032024 | 20 | 329 | 0.0 | 0.0 | 0.00 | 0.00 | 0.00 | 82 | 1018.3 |
| 20260906031520 | 20 | 321 | 0.0 | 1.6 | 0.00 | 0.00 | 0.00 | 82 | 1018.6 |
| 20260906031015 | 20 | 291 | 0.0 | 0.0 | 0.00 | 0.00 | 0.00 | 82 | 1018.4 |
| 20260906030514 | 20 | 321 | 0.0 | 0.0 | 0.00 | 0.00 | 0.00 | 82 | 1018.3 |
| 20260906030014 | 20 | 323 | 0.0 | 0.0 | 0.00 | 0.00 | 0.00 | 82 | 1018.2 |
| 20260906025514 | 20 | 319 | 0.0 | 0.0 | 0.00 | 0.00 | 0.00 | 82 | 1018.1 |
| 20260906025012 | 20 | 8 | 0.0 | 0.0 | 0.00 | 0.00 | 0.00 | 81 | 1018.1 |
| 20260906024508 | 20 | 327 | 0.0 | 0.0 | 0.00 | 0.00 | 0.00 | 81 | 1018.1 |
| 20260906024008 | 21 | 317 | 0.0 | 0.0 | 0.00 | 0.00 | 0.00 | 81 | 1018.0 |
| 20260906023504 | 21 | 317 | 0.0 | 0.0 | 0.00 | 0.00 | 0.00 | 80 | 1018.1 |
| 20260906022959 | 21 | 218 | 1.6 | 3.2 | 0.00 | 0.00 | 0.00 | 80 | 1018.0 |
| 20260906022454 | 21 | 322 | 0.0 | 0.0 | 0.00 | 0.00 | 0.00 | 81 | 1017.9 |
| 20260906021949 | 21 | 11 | 3.2 | 3.2 | 0.00 | 0.00 | 0.00 | 81 | 1017.8 |
| 20260906021444 | 21 | 316 | 0.0 | 0.0 | 0.00 | 0.00 | 0.00 | 80 | 1017.8 |
| 20260906020938 | 21 | 321 | 0.0 | 0.0 | 0.00 | 0.00 | 0.00 | 80 | 1017.9 |
| 20260906020432 | 21 | 300 | 0.0 | 1.6 | 0.00 | 0.00 | 0.00 | 80 | 1017.7 |
| 20260906015927 | 22 | 323 | 0.0 | 0.0 | 0.00 | 0.00 | 0.00 | 80 | 1017.7 |
| 20260906015421 | 22 | 330 | 0.0 | 0.0 | 0.00 | 0.00 | 0.00 | 79 | 1018.0 |
| 20260906014921 | 22 | 308 | 0.0 | 0.0 | 0.00 | 0.00 | 0.00 | 79 | 1017.7 |
| 20260906014420 | 22 | 331 | 0.0 | 0.0 | 0.00 | 0.00 | 0.00 | 79 | 1017.6 |
| 20260906013917 | 22 | 256 | 1.6 | 1.6 | 0.00 | 0.00 | 0.00 | 79 | 1017.7 |
| 20260906013412 | 22 | 231 | 0.0 | 0.0 | 0.00 | 0.00 | 0.00 | 79 | 1017.5 |
| 20260906012908 | 22 | 283 | 0.0 | 1.6 | 0.00 | 0.00 | 0.00 | 79 | 1017.6 |
| 20260906012403 | 22 | 308 | 1.6 | 3.2 | 0.00 | 0.00 | 0.00 | 80 | 1017.3 |
| 20260906011902 | 23 | 316 | 1.6 | 3.2 | 0.00 | 0.00 | 0.00 | 80 | 1017.6 |
| 20260906011356 | 23 | 316 | 0.0 | 0.0 | 0.00 | 0.00 | 0.00 | 80 | 1017.3 |
| 20260906010852 | 23 | 347 | 1.6 | 1.6 | 0.00 | 0.00 | 0.00 | 80 | 1017.2 |
| 20260906010348 | 23 | 311 | 1.6 | 1.6 | 0.00 | 0.00 | 0.00 | 81 | 1017.3 |
| 20260906005844 | 23 | 319 | 3.2 | 3.2 | 0.00 | 0.00 | 0.00 | 81 | 1017.2 |
| 20260906005343 | 23 | 8 | 1.6 | 3.2 | 0.00 | 0.00 | 0.00 | 82 | 1017.1 |
| 20260906004842 | 23 | 294 | 1.6 | 3.2 | 0.00 | 0.00 | 0.00 | 82 | 1017.0 |
| 20260906004336 | 23 | 94 | 1.6 | 3.2 | 0.00 | 0.00 | 0.00 | 81 | 1017.1 |
| 20260906003831 | 23 | 325 | 1.6 | 1.6 | 0.00 | 0.00 | 0.00 | 81 | 1016.9 |
| 20260906003326 | 23 | 18 | 1.6 | 1.6 | 0.00 | 0.00 | 0.00 | 81 | 1016.9 |
| 20260906002822 | 23 | 94 | 4.8 | 4.8 | 0.00 | 0.00 | 0.00 | 81 | 1016.8 |
| 20260906002321 | 23 | 326 | 0.0 | 1.6 | 0.00 | 0.00 | 0.00 | 81 | 1016.9 |
| 20260906001818 | 23 | 308 | 1.6 | 3.2 | 0.00 | 0.00 | 0.00 | 81 | 1017.0 |
| 20260906001312 | 23 | 31 | 0.0 | 1.6 | 0.00 | 0.00 | 0.00 | 81 | 1016.8 |
| 20260906000807 | 23 | 346 | 0.0 | 1.6 | 0.00 | 0.00 | 0.00 | 81 | 1017.0 |
| 20260906000303 | 24 | 316 | 0.0 | 0.0 | 0.00 | 0.00 | 0.00 | 81 | 1016.9 |
| 20260905235757 | 24 | 321 | 0.0 | 0.0 | 0.00 | 0.00 | 0.00 | 80 | 1017.1 |
| 20260905235256 | 24 | 300 | 0.0 | 0.0 | 0.00 | 0.00 | 0.00 | 80 | 1017.0 |
| 20260905234752 | 24 | 341 | 1.6 | 1.6 | 0.00 | 0.00 | 0.00 | 79 | 1016.9 |
| 20260905234247 | 25 | 331 | 0.0 | 0.0 | 0.00 | 0.00 | 0.00 | 80 | 1017.1 |
| 20260905233743 | 25 | 315 | 0.0 | 0.0 | 0.00 | 0.00 | 0.00 | 80 | 1016.9 |
| 20260905233242 | 25 | 320 | 1.6 | 3.2 | 0.00 | 0.00 | 0.00 | 81 | 1016.9 |
| 20260905232736 | 25 | 315 | 0.0 | 0.0 | 0.00 | 0.00 | 0.00 | 80 | 1016.9 |
| 20260905232232 | 25 | 300 | 0.0 | 0.0 | 0.00 | 0.00 | 0.00 | 79 | 1017.0 |
| 20260905231728 | 25 | 298 | 0.0 | 0.0 | 0.00 | 0.00 | 0.00 | 78 | 1017.0 |
| 20260905231223 | 25 | 331 | 0.0 | 0.0 | 0.00 | 0.00 | 0.00 | 77 | 1016.8 |
| 20260905230719 | 25 | 289 | 0.0 | 0.0 | 0.00 | 0.00 | 0.00 | 77 | 1016.8 |
| 20260905230217 | 26 | 290 | 0.0 | 0.0 | 0.00 | 0.00 | 0.00 | 77 | 1016.7 |
| 20260905225717 | 26 | 263 | 0.0 | 0.0 | 0.00 | 0.00 | 0.00 | 75 | 1016.6 |
| 20260905225212 | 26 | 301 | 0.0 | 0.0 | 0.00 | 0.00 | 0.00 | 75 | 1016.6 |
| 20260905224711 | 26 | 270 | 0.0 | 0.0 | 0.00 | 0.00 | 0.00 | 75 | 1017.0 |
| 20260905224206 | 26 | 301 | 0.0 | 0.0 | 0.00 | 0.00 | 0.00 | 75 | 1016.9 |
| 20260905223703 | 26 | 309 | 0.0 | 1.6 | 0.00 | 0.00 | 0.00 | 75 | 1016.9 |
| 20260905223159 | 26 | 307 | 0.0 | 0.0 | 0.00 | 0.00 | 0.00 | 74 | 1016.7 |
| 20260905222654 | 26 | 290 | 3.2 | 3.2 | 0.00 | 0.00 | 0.00 | 73 | 1016.7 |
| 20260905222149 | 26 | 307 | 1.6 | 1.6 | 0.00 | 0.00 | 0.00 | 72 | 1016.8 |
| 20260905221644 | 26 | 242 | 0.0 | 0.0 | 0.00 | 0.00 | 0.00 | 74 | 1016.7 |
| 20260905221141 | 26 | 271 | 4.8 | 8.0 | 0.00 | 0.00 | 0.00 | 73 | 1016.6 |
| 20260905220636 | 26 | 45 | 3.2 | 3.2 | 0.00 | 0.00 | 0.00 | 74 | 1016.7 |
| 20260905220132 | 26 | 56 | 6.4 | 12.9 | 0.00 | 0.00 | 0.00 | 75 | 1016.3 |
| 20260905215632 | 26 | 259 | 0.0 | 1.6 | 0.00 | 0.00 | 0.00 | 77 | 1016.3 |
| 20260905215127 | 25 | 282 | 3.2 | 3.2 | 0.00 | 0.00 | 0.00 | 75 | 1016.4 |
| 20260905214623 | 25 | 217 | 3.2 | 3.2 | 0.00 | 0.00 | 0.00 | 76 | 1016.3 |
| 20260905214123 | 25 | 265 | 1.6 | 1.6 | 0.00 | 0.00 | 0.00 | 77 | 1016.4 |
| 20260905213619 | 25 | 357 | 1.6 | 1.6 | 0.00 | 0.00 | 0.00 | 76 | 1016.4 |
| 20260905213114 | 25 | 273 | 0.0 | 1.6 | 0.00 | 0.00 | 0.00 | 76 | 1016.2 |
| 20260905212609 | 25 | 70 | 4.8 | 4.8 | 0.00 | 0.00 | 0.00 | 74 | 1016.3 |
| 20260905212108 | 25 | 58 | 3.2 | 4.8 | 0.00 | 0.00 | 0.00 | 76 | 1016.4 |
| 20260905211604 | 25 | 227 | 3.2 | 3.2 | 0.00 | 0.00 | 0.00 | 75 | 1016.4 |
| 20260905211059 | 25 | 162 | 3.2 | 3.2 | 0.00 | 0.00 | 0.00 | 76 | 1016.3 |
| 20260905210555 | 25 | 338 | 1.6 | 1.6 | 0.00 | 0.00 | 0.00 | 78 | 1016.5 |
| 20260905210050 | 25 | 227 | 1.6 | 3.2 | 0.00 | 0.00 | 0.00 | 80 | 1016.4 |
| 20260905205549 | 25 | 281 | 4.8 | 4.8 | 0.00 | 0.00 | 0.00 | 79 | 1016.2 |
| 20260905205048 | 25 | 274 | 1.6 | 3.2 | 0.00 | 0.00 | 0.00 | 81 | 1016.3 |
| 20260905204543 | 25 | 247 | 4.8 | 4.8 | 0.00 | 0.00 | 0.00 | 80 | 1016.2 |
| 20260905204039 | 25 | 286 | 1.6 | 1.6 | 0.00 | 0.00 | 0.00 | 81 | 1016.3 |
| 20260905203538 | 25 | 296 | 0.0 | 1.6 | 0.00 | 0.00 | 0.00 | 81 | 1016.6 |
| 20260905203034 | 25 | 178 | 3.2 | 3.2 | 0.00 | 0.00 | 0.00 | 81 | 1016.3 |
| 20260905202529 | 25 | 265 | 3.2 | 3.2 | 0.00 | 0.00 | 0.00 | 82 | 1016.6 |
| 20260905202025 | 25 | 304 | 1.6 | 3.2 | 0.00 | 0.00 | 0.00 | 82 | 1016.6 |
| 20260905201520 | 24 | 16 | 1.6 | 3.2 | 0.00 | 0.00 | 0.00 | 83 | 1016.6 |
| 20260905201019 | 24 | 107 | 4.8 | 4.8 | 0.00 | 0.00 | 0.00 | 84 | 1016.7 |
| 20260905200515 | 23 | 141 | 4.8 | 8.0 | 0.00 | 0.00 | 0.00 | 84 | 1016.7 |
| 20260905200014 | 23 | 291 | 1.6 | 1.6 | 0.00 | 0.00 | 0.00 | 85 | 1016.7 |
| 20260905195508 | 23 | 66 | 9.7 | 11.3 | 0.00 | 0.00 | 0.00 | 85 | 1016.6 |
| 20260905195004 | 23 | 0 | 3.2 | 8.0 | 0.00 | 0.00 | 0.00 | 86 | 1016.9 |
| 20260905194458 | 23 | 288 | 1.6 | 1.6 | 0.00 | 0.00 | 0.00 | 87 | 1016.8 |
| 20260905193957 | 23 | 15 | 0.0 | 1.6 | 0.00 | 0.00 | 0.00 | 88 | 1016.8 |
| 20260905193452 | 22 | 284 | 1.6 | 1.6 | 0.00 | 0.00 | 0.00 | 89 | 1016.8 |
| 20260905192947 | 22 | 349 | 1.6 | 1.6 | 0.00 | 0.00 | 0.00 | 90 | 1016.9 |
| 20260905192442 | 22 | 267 | 0.0 | 0.0 | 0.00 | 0.00 | 0.00 | 91 | 1017.0 |
| 20260905191938 | 22 | 281 | 1.6 | 1.6 | 0.00 | 0.00 | 0.00 | 90 | 1017.0 |
| 20260905191432 | 22 | 305 | 3.2 | 4.8 | 0.00 | 0.00 | 0.00 | 91 | 1017.0 |
| 20260905190931 | 22 | 86 | 4.8 | 4.8 | 0.00 | 0.00 | 0.00 | 92 | 1017.0 |
| 20260905190429 | 22 | 95 | 3.2 | 3.2 | 0.00 | 0.00 | 0.00 | 93 | 1017.0 |
| 20260905185928 | 22 | 324 | 1.6 | 1.6 | 0.00 | 0.00 | 0.00 | 94 | 1017.0 |
| 20260905185424 | 21 | 277 | 0.0 | 1.6 | 0.00 | 0.00 | 0.00 | 95 | 1017.0 |
| 20260905184922 | 21 | 359 | 1.6 | 4.8 | 0.00 | 0.00 | 0.00 | 95 | 1016.9 |
| 20260905184417 | 21 | 33 | 1.6 | 4.8 | 0.00 | 0.00 | 0.00 | 95 | 1017.2 |
| 20260905183915 | 21 | 295 | 0.0 | 0.0 | 0.00 | 0.00 | 0.00 | 95 | 1017.1 |
| 20260905183410 | 21 | 336 | 1.6 | 3.2 | 0.00 | 0.00 | 0.00 | 95 | 1017.4 |
| 20260905182905 | 21 | 276 | 1.6 | 1.6 | 0.00 | 0.00 | 0.00 | 94 | 1017.4 |
| 20260905182359 | 22 | 294 | 0.0 | 1.6 | 0.00 | 0.00 | 0.00 | 94 | 1017.4 |
| 20260905181855 | 21 | 292 | 0.0 | 1.6 | 0.00 | 0.00 | 0.00 | 93 | 1017.3 |
| 20260905181355 | 22 | 294 | 1.6 | 1.6 | 0.00 | 0.00 | 0.00 | 92 | 1017.5 |
| 20260905180854 | 21 | 319 | 0.0 | 0.0 | 0.00 | 0.00 | 0.00 | 92 | 1017.2 |
| 20260905180349 | 21 | 320 | 0.0 | 0.0 | 0.00 | 0.00 | 0.00 | 92 | 1017.4 |
| 20260905175843 | 21 | 297 | 0.0 | 0.0 | 0.00 | 0.00 | 0.00 | 92 | 1017.1 |
| 20260905175338 | 21 | 14 | 1.6 | 3.2 | 0.00 | 0.00 | 0.00 | 92 | 1017.2 |
| 20260905174833 | 21 | 344 | 1.6 | 1.6 | 0.00 | 0.00 | 0.00 | 92 | 1017.4 |
| 20260905174329 | 21 | 278 | 0.0 | 0.0 | 0.00 | 0.00 | 0.00 | 92 | 1017.1 |
| 20260905173824 | 21 | 50 | 1.6 | 1.6 | 0.00 | 0.00 | 0.00 | 92 | 1017.1 |
| 20260905173321 | 21 | 10 | 1.6 | 1.6 | 0.00 | 0.00 | 0.00 | 92 | 1017.1 |
| 20260905172821 | 21 | 327 | 4.8 | 8.0 | 0.00 | 0.00 | 0.00 | 92 | 1016.9 |
| 20260905172318 | 21 | 276 | 1.6 | 1.6 | 0.00 | 0.00 | 0.00 | 93 | 1017.0 |
| 20260905171815 | 21 | 271 | 1.6 | 1.6 | 0.00 | 0.00 | 0.00 | 93 | 1017.1 |
| 20260905171311 | 21 | 341 | 1.6 | 3.2 | 0.00 | 0.00 | 0.00 | 93 | 1017.1 |
| 20260905170808 | 21 | 349 | 1.6 | 1.6 | 0.00 | 0.00 | 0.00 | 93 | 1017.1 |
| 20260905170303 | 21 | 312 | 1.6 | 1.6 | 0.00 | 0.00 | 0.00 | 94 | 1017.2 |
| 20260905165802 | 21 | 341 | 3.2 | 3.2 | 0.00 | 0.00 | 0.00 | 94 | 1017.1 |
| 20260905165258 | 21 | 56 | 0.0 | 1.6 | 0.00 | 0.00 | 0.00 | 94 | 1017.1 |
| 20260905164758 | 21 | 296 | 1.6 | 1.6 | 0.00 | 0.00 | 0.00 | 94 | 1016.8 |
| 20260905164253 | 21 | 299 | 0.0 | 0.0 | 0.00 | 0.00 | 0.00 | 95 | 1017.0 |
| 20260905163748 | 21 | 103 | 4.8 | 8.0 | 0.00 | 0.00 | 0.00 | 95 | 1017.0 |
| 20260905163244 | 20 | 340 | 1.6 | 3.2 | 0.00 | 0.00 | 0.00 | 95 | 1016.8 |
| 20260905162740 | 21 | 30 | 3.2 | 3.2 | 0.00 | 0.00 | 0.00 | 95 | 1017.0 |
| 20260905162239 | 21 | 317 | 1.6 | 3.2 | 0.00 | 0.00 | 0.00 | 95 | 1017.1 |
| 20260905161734 | 20 | 334 | 1.6 | 1.6 | 0.00 | 0.00 | 0.00 | 95 | 1017.3 |
| 20260905161232 | 20 | 71 | 6.4 | 8.0 | 0.00 | 0.00 | 0.00 | 95 | 1016.9 |
| 20260905160726 | 20 | 338 | 0.0 | 0.0 | 0.00 | 0.00 | 0.00 | 95 | 1016.8 |
| 20260905160226 | 20 | 304 | 0.0 | 0.0 | 0.00 | 0.00 | 0.00 | 95 | 1017.1 |
| 20260905155720 | 20 | 336 | 0.0 | 0.0 | 0.00 | 0.00 | 0.00 | 95 | 1017.3 |
| 20260905155219 | 20 | 357 | 3.2 | 3.2 | 0.00 | 0.00 | 0.00 | 95 | 1017.1 |
| 20260905154714 | 20 | 321 | 0.0 | 0.0 | 0.00 | 0.00 | 0.00 | 94 | 1017.1 |
| 20260905154209 | 21 | 302 | 0.0 | 0.0 | 0.00 | 0.00 | 0.00 | 94 | 1016.9 |
| 20260905153705 | 20 | 323 | 0.0 | 0.0 | 0.00 | 0.00 | 0.00 | 94 | 1016.9 |
| 20260905153200 | 21 | 355 | 0.0 | 1.6 | 0.00 | 0.00 | 0.00 | 93 | 1016.9 |
| 20260905152655 | 21 | 76 | 1.6 | 3.2 | 0.00 | 0.00 | 0.00 | 93 | 1016.8 |
| 20260905152150 | 21 | 34 | 1.6 | 3.2 | 0.00 | 0.00 | 0.00 | 91 | 1016.7 |
| 20260905151644 | 21 | 55 | 0.0 | 3.2 | 0.00 | 0.00 | 0.00 | 91 | 1016.7 |
| 20260905151140 | 21 | 335 | 1.6 | 1.6 | 0.00 | 0.00 | 0.00 | 90 | 1017.0 |
| 20260905150635 | 21 | 357 | 3.2 | 3.2 | 0.00 | 0.00 | 0.00 | 90 | 1016.7 |
| 20260905150134 | 21 | 19 | 4.8 | 4.8 | 0.00 | 0.00 | 0.00 | 90 | 1016.9 |
| 20260905145632 | 21 | 330 | 0.0 | 0.0 | 0.00 | 0.00 | 0.00 | 90 | 1017.0 |
| 20260905145131 | 21 | 294 | 0.0 | 1.6 | 0.00 | 0.00 | 0.00 | 90 | 1016.9 |
| 20260905144626 | 21 | 84 | 1.6 | 1.6 | 0.00 | 0.00 | 0.00 | 90 | 1016.6 |
| 20260905144125 | 21 | 275 | 3.2 | 4.8 | 0.00 | 0.00 | 0.00 | 89 | 1016.6 |
| 20260905143620 | 21 | 76 | 1.6 | 3.2 | 0.00 | 0.00 | 0.00 | 90 | 1016.5 |
| 20260905143115 | 21 | 329 | 3.2 | 8.0 | 0.00 | 0.00 | 0.00 | 89 | 1016.6 |
| 20260905142613 | 21 | 305 | 1.6 | 1.6 | 0.00 | 0.00 | 0.00 | 90 | 1016.3 |
| 20260905142108 | 21 | 287 | 1.6 | 1.6 | 0.00 | 0.00 | 0.00 | 90 | 1016.6 |
| 20260905141608 | 21 | 300 | 0.0 | 0.0 | 0.00 | 0.00 | 0.00 | 91 | 1016.5 |
| 20260905141104 | 21 | 327 | 0.0 | 0.0 | 0.00 | 0.00 | 0.00 | 91 | 1016.5 |
| 20260905140559 | 21 | 316 | 0.0 | 1.6 | 0.00 | 0.00 | 0.00 | 92 | 1016.5 |
| 20260905140058 | 21 | 325 | 0.0 | 1.6 | 0.00 | 0.00 | 0.00 | 92 | 1016.3 |
| 20260905135554 | 20 | 1 | 1.6 | 1.6 | 0.00 | 0.00 | 0.00 | 92 | 1016.3 |
| 20260905135054 | 20 | 124 | 4.8 | 8.0 | 0.00 | 0.00 | 0.00 | 92 | 1016.1 |
| 20260905134549 | 20 | 44 | 6.4 | 11.3 | 0.00 | 0.00 | 0.00 | 92 | 1016.3 |
| 20260905134047 | 20 | 224 | 3.2 | 3.2 | 0.00 | 0.00 | 0.00 | 93 | 1016.1 |
| 20260905133542 | 20 | 5 | 3.2 | 3.2 | 0.00 | 0.00 | 0.00 | 93 | 1016.1 |
| 20260905133037 | 20 | 314 | 0.0 | 0.0 | 0.00 | 0.00 | 0.00 | 94 | 1016.2 |
| 20260905132537 | 20 | 66 | 3.2 | 4.8 | 0.00 | 0.00 | 0.00 | 94 | 1016.2 |
| 20260905132031 | 20 | 353 | 3.2 | 4.8 | 0.00 | 0.00 | 0.00 | 94 | 1016.1 |
| 20260905131527 | 20 | 9 | 3.2 | 3.2 | 0.00 | 0.00 | 0.00 | 94 | 1016.2 |